Racine, WI

8:38 AM CST on January 22, 2018 (GMT -0600)
Batten

Weather History for KRAC - May, 2013

Change the Weather History Date:

Wednesday, May 22, 2013

  Actual Average Record
Temperature  
Mean Temperature 60 °F -  
Max Temperature 69 °F 64 °F 92 °F (1956)
Min Temperature 51 °F 47 °F 34 °F (1971)
Degree Days  
Heating Degree Days 5    
Growing Degree Days 10 (Base 50)    
Moisture  
Dew Point 55 °F    
Average Humidity 86    
Maximum Humidity 94    
Minimum Humidity 63    
Precipitation  
Precipitation 0.72 in - - ()
Sea Level Pressure  
Sea Level Pressure 29.69 in    
Wind  
Wind Speed 6 mph (NE)    
Max Wind Speed 16 mph    
Max Gust Speed 21 mph    
Visibility 6 miles    
Events Fog , Rain , Thunderstorm    
Averages and records for this station are not official NWS values.
T = Trace of Precipitation, MM = Missing Value Source: NWS Daily Summary

Daily Weather History Graph

Daily Weather History Graph

Search for Another Location

Airport or City:

Trip Planner

Search our weather history database for the weather conditions in past years. The results will help you decide how hot, cold, wet, or windy it might be!

Date:

Astronomy

May. 22, 2013 Rise Set
Actual Time 5:22 AM CDT 8:14 PM CDT
Civil Twilight 4:48 AM CDT 8:47 PM CDT
Nautical Twilight 4:06 AM CDT 9:30 PM CDT
Astronomical Twilight 3:17 AM CDT 10:19 PM CDT
Moon 5:33 PM CDT 3:29 AM CDT
Length of Visible Light 15h 59m
Length of Day
14h 52m
Waxing Gibbous, 91% of the Moon is Illuminated
May 22
Waxing Gibbous
May 24
Full
May 31
Last Quarter
Jun 8
New
Jun 16
First Quarter

Hourly Weather History & Observations

Time (CDT) Temp. Dew Point Humidity Pressure Visibility Wind Dir Wind Speed Gust Speed Precip Events Conditions
12:53 AM 69.1 °F 55.9 °F 63% 29.69 in 10.0 mi SSE 8.1 mph - N/A   Overcast
1:53 AM 68.0 °F 57.9 °F 70% 29.67 in 10.0 mi Calm Calm - N/A   Mostly Cloudy
2:53 AM 66.9 °F 60.1 °F 79% 29.68 in 9.0 mi South 3.5 mph - N/A   Mostly Cloudy
3:32 AM 64.4 °F 60.8 °F 88% 29.69 in 5.0 mi South 6.9 mph - N/A   Haze
3:53 AM 64.9 °F 60.1 °F 84% 29.67 in 7.0 mi South 3.5 mph - N/A   Mostly Cloudy
4:53 AM 64.9 °F 60.1 °F 84% 29.66 in 9.0 mi ESE 6.9 mph - N/A   Mostly Cloudy
5:33 AM 64.4 °F 60.8 °F 88% 29.68 in 7.0 mi SSE 3.5 mph - 0.00 in Rain Light Rain
5:53 AM 64.9 °F 62.1 °F 90% 29.66 in 4.0 mi SSE 3.5 mph - 0.04 in Rain Light Rain
6:19 AM 64.4 °F 62.6 °F 94% 29.66 in 6.0 mi ESE 4.6 mph - 0.00 in Rain Light Rain
6:31 AM 64.4 °F 60.8 °F 88% 29.67 in 4.0 mi East 3.5 mph - 0.00 in Rain Light Rain
6:35 AM 64.4 °F 60.8 °F 88% 29.67 in 5.0 mi ESE 4.6 mph - 0.00 in Rain Light Rain
6:47 AM 62.6 °F 59.0 °F 88% 29.68 in 2.5 mi ESE 5.8 mph - 0.01 in Rain Light Rain
6:53 AM 62.1 °F 57.9 °F 86% 29.67 in 0.5 mi ESE 8.1 mph - 0.01 in Fog , Rain Light Rain
7:31 AM 60.8 °F 57.2 °F 88% 29.67 in 2.0 mi East 3.5 mph - 0.05 in Rain Light Rain
7:53 AM 61.0 °F 57.0 °F 87% 29.65 in 5.0 mi ESE 3.5 mph - 0.07 in Rain Light Rain
8:53 AM 63.0 °F 59.0 °F 87% 29.65 in 5.0 mi Calm Calm - 0.02 in Rain Light Rain
9:25 AM 64.4 °F 60.8 °F 88% 29.66 in 5.0 mi Calm Calm - 0.01 in   Overcast
9:53 AM 64.9 °F 62.1 °F 90% 29.65 in 5.0 mi Calm Calm - 0.01 in Rain Light Rain
10:09 AM 66.2 °F 62.6 °F 88% 29.65 in 6.0 mi Calm Calm - 0.00 in Rain Light Rain
10:53 AM 69.1 °F 63.0 °F 81% 29.64 in 8.0 mi Calm Calm - 0.01 in Rain Light Rain
11:09 AM 64.4 °F 60.8 °F 88% 29.66 in 5.0 mi NE 4.6 mph - 0.00 in   Overcast
11:18 AM 64.4 °F 59.0 °F 83% 29.66 in 5.0 mi NE 5.8 mph - 0.00 in   Haze
11:53 AM 63.0 °F 57.9 °F 84% 29.65 in 10.0 mi East 4.6 mph - 0.00 in   Overcast
12:34 PM 60.8 °F 55.4 °F 82% 29.66 in 1.5 mi North 9.2 mph - N/A   Overcast
12:42 PM 57.2 °F 53.6 °F 88% 29.66 in 0.2 mi NNE 10.4 mph - N/A Fog Fog
12:44 PM 57.2 °F 53.6 °F 88% 29.66 in 0.2 mi North 10.4 mph - N/A Fog , Thunderstorm Fog
12:53 PM 57.0 °F 54.0 °F 89% 29.67 in 0.2 mi North 5.8 mph - N/A Fog , Thunderstorm Fog
1:39 PM 53.6 °F 50.0 °F 88% 29.71 in 0.5 mi North 5.8 mph - 0.25 in Fog , Rain , Thunderstorm Heavy Thunderstorms and Rain
1:49 PM 53.6 °F 50.0 °F 88% 29.71 in 1.2 mi NNE 6.9 mph - 0.35 in Rain , Thunderstorm Thunderstorms and Rain
1:53 PM 53.1 °F 50.0 °F 89% 29.71 in 2.0 mi North 6.9 mph - 0.36 in Rain , Thunderstorm Thunderstorms and Rain
1:57 PM 53.6 °F 50.0 °F 88% 29.71 in 3.0 mi North 8.1 mph - 0.02 in Rain , Thunderstorm Rain
2:07 PM 53.6 °F 50.0 °F 88% 29.71 in 4.0 mi NNE 5.8 mph - 0.05 in Rain , Thunderstorm Thunderstorms and Rain
2:17 PM 53.6 °F 50.0 °F 88% 29.71 in 4.0 mi NNE 6.9 mph - 0.07 in Rain , Thunderstorm Thunderstorms and Rain
2:26 PM 53.6 °F 50.0 °F 88% 29.70 in 5.0 mi NNE 8.1 mph - 0.08 in Rain Light Rain
2:46 PM 53.6 °F 50.0 °F 88% 29.69 in 9.0 mi North 8.1 mph - 0.10 in Rain Light Rain
2:53 PM 54.0 °F 51.1 °F 90% 29.70 in 10.0 mi North 5.8 mph - 0.10 in Rain Light Rain
3:45 PM 55.4 °F 51.8 °F 88% 29.69 in 8.0 mi North 11.5 mph - 0.00 in   Overcast
3:53 PM 57.0 °F 53.1 °F 87% 29.69 in 10.0 mi North 12.7 mph - 0.00 in   Overcast
4:19 PM 55.4 °F 51.8 °F 88% 29.70 in 10.0 mi North 9.2 mph - N/A   Overcast
4:53 PM 55.0 °F 50.0 °F 83% 29.70 in 10.0 mi North 9.2 mph - N/A   Overcast
5:10 PM 53.6 °F 50.0 °F 88% 29.70 in 10.0 mi NNE 5.8 mph - N/A Thunderstorm Overcast
5:25 PM 53.6 °F 50.0 °F 88% 29.70 in 6.0 mi North 8.1 mph - 0.01 in Rain Light Rain
5:40 PM 53.6 °F 50.0 °F 88% 29.70 in 2.0 mi NNE 8.1 mph - 0.05 in Rain Rain
5:53 PM 54.0 °F 50.0 °F 86% 29.70 in 4.0 mi NNE 9.2 mph - 0.09 in Rain Light Rain
6:53 PM 53.1 °F 50.0 °F 89% 29.71 in 10.0 mi North 10.4 mph - 0.01 in   Overcast
7:53 PM 52.0 °F 48.9 °F 89% 29.74 in 10.0 mi North 12.7 mph - N/A   Overcast
8:53 PM 53.1 °F 48.9 °F 86% 29.76 in 10.0 mi North 8.1 mph - N/A   Overcast
9:36 PM 53.6 °F 48.2 °F 82% 29.77 in 4.0 mi NNE 16.1 mph 20.7 mph N/A   Overcast
9:53 PM 53.1 °F 48.9 °F 86% 29.78 in 10.0 mi NNE 15.0 mph 19.6 mph N/A   Overcast
10:53 PM 52.0 °F 48.0 °F 86% 29.78 in 10.0 mi NNE 12.7 mph 18.4 mph N/A   Overcast
11:20 PM 51.8 °F 48.2 °F 88% 29.79 in 10.0 mi NNE 10.4 mph 20.7 mph N/A   Overcast
11:53 PM 53.1 °F 48.9 °F 86% 29.79 in 9.0 mi North 10.4 mph - N/A   Overcast